Kiripotib Landing Site

Jump to: basic info | weather | comments

Related pages: nearby airports | nearby navaids

Basic information (top)

Location: lon -23.328300, lat 17.946400, elev 4,475 ft / 1,364 m msl
Status: small_airport

Weather (top)

Current conditions for Hosea Kutako International Airport 57nm (106km) NNW (rec'd 2014/09/22 17:00Z):

FYWH 221700Z 32007KT 9999 FEW045 21/06 Q1024

Airport forecast for Hosea Kutako International Airport 57nm (106km) NNW (rec'd 2014/09/19 06:00Z):

TAF FYWH 190400Z 1906/2012 20007KT CAVOK 
      BECMG 1912/1914 10004KT 

Latest comments (top)

More details: Once can also land in the nearby salt ... [read]

Kiripotib Landing Strip Details: GPS location: S 23° 19' 50'' E 17° ... [read]

More... (top)

See also NOTAMs and nearby airports and navaids, or visit the Kiripotib Landing Site page at the main OurAirports website..